| time (UTC) | temp C | wind direction | speed KPH | gust KPH | rain 1hr cm | rain 24hr cm | rain mn cm | humidity % | barometer mb |
| 20260504234525 | 25 | 240 | 1.6 | 4.8 | 0.00 | 0.00 | 0.00 | 36 | 1001.5 |
| 20260504233025 | 25 | 290 | 1.6 | 8.0 | 0.00 | 0.00 | 0.00 | 36 | 1001.5 |
| 20260504231524 | 26 | 107 | 1.6 | 11.3 | 0.00 | 0.00 | 0.00 | 34 | 1001.5 |
| 20260504230024 | 26 | 260 | 1.6 | 9.7 | 0.00 | 0.00 | 0.00 | 34 | 1001.5 |
| 20260504224524 | 27 | 139 | 1.6 | 14.5 | 0.00 | 0.00 | 0.00 | 35 | 1001.6 |
| 20260504223033 | 27 | 115 | 1.6 | 4.8 | 0.00 | 0.00 | 0.00 | 32 | 1001.6 |
| 20260504221525 | 27 | 253 | 4.8 | 9.7 | 0.00 | 0.00 | 0.00 | 28 | 1001.5 |
| 20260504220021 | 27 | 113 | 1.6 | 8.0 | 0.00 | 0.00 | 0.00 | 30 | 1002.2 |
| 20260504214524 | 28 | 184 | 1.6 | 12.9 | 0.00 | 0.00 | 0.00 | 27 | 1001.6 |
| 20260504213032 | 28 | 248 | 3.2 | 11.3 | 0.00 | 0.00 | 0.00 | 25 | 1001.7 |
| 20260504211523 | 28 | 240 | 3.2 | 14.5 | 0.00 | 0.00 | 0.00 | 27 | 1001.7 |
| 20260504210019 | 27 | 182 | 3.2 | 12.9 | 0.00 | 0.00 | 0.00 | 30 | 1001.8 |
| 20260504204532 | 27 | 122 | 3.2 | 12.9 | 0.00 | 0.00 | 0.00 | 31 | 1002.0 |
| 20260504203020 | 27 | 119 | 1.6 | 9.7 | 0.00 | 0.00 | 0.00 | 31 | 1002.2 |
| 20260504201513 | 27 | 236 | 3.2 | 11.3 | 0.00 | 0.00 | 0.00 | 34 | 1002.3 |
| 20260504200011 | 27 | 260 | 1.6 | 9.7 | 0.00 | 0.00 | 0.00 | 34 | 1002.4 |
| 20260504194509 | 27 | 239 | 1.6 | 6.4 | 0.00 | 0.00 | 0.00 | 36 | 1002.5 |
| 20260504193008 | 27 | 183 | 1.6 | 11.3 | 0.00 | 0.00 | 0.00 | 30 | 1002.5 |
| 20260504191506 | 26 | 248 | 1.6 | 11.3 | 0.00 | 0.00 | 0.00 | 29 | 1002.5 |
| 20260504190005 | 26 | 261 | 3.2 | 11.3 | 0.00 | 0.00 | 0.00 | 32 | 1002.6 |
| 20260504184504 | 26 | 148 | 3.2 | 9.7 | 0.00 | 0.00 | 0.00 | 31 | 1002.7 |
| 20260504183002 | 25 | 109 | 3.2 | 12.9 | 0.00 | 0.00 | 0.00 | 31 | 1002.8 |
| 20260504181604 | 25 | 212 | 1.6 | 14.5 | 0.00 | 0.00 | 0.00 | 37 | 1002.8 |
| 20260504180059 | 25 | 208 | 3.2 | 11.3 | 0.00 | 0.00 | 0.00 | 33 | 1002.9 |
| 20260504174611 | 25 | 180 | 3.2 | 6.4 | 0.00 | 0.00 | 0.00 | 39 | 1003.1 |
| 20260504173054 | 24 | 271 | 4.8 | 16.1 | 0.00 | 0.00 | 0.00 | 38 | 1003.2 |
| 20260504171553 | 24 | 138 | 3.2 | 11.3 | 0.00 | 0.00 | 0.00 | 36 | 1003.3 |
| 20260504090112 | 13 | 100 | 0.0 | 0.0 | 0.00 | 0.00 | 0.00 | 54 | 1005.7 |
| 20260504081554 | 14 | 100 | 0.0 | 0.0 | 0.00 | 0.00 | 0.00 | 53 | 1005.8 |
| 20260504050022 | 20 | 29 | 0.0 | 6.4 | 0.00 | 0.00 | 0.00 | 37 | 1007.9 |
| 20260504044533 | 20 | 67 | 1.6 | 12.9 | 0.00 | 0.00 | 0.00 | 38 | 1009.1 |
| 20260504043023 | 20 | 86 | 4.8 | 11.3 | 0.00 | 0.00 | 0.00 | 36 | 1008.5 |
| 20260504041519 | 21 | 157 | 1.6 | 8.0 | 0.00 | 0.00 | 0.00 | 34 | 1008.2 |
| 20260504040018 | 20 | 265 | 0.0 | 4.8 | 0.00 | 0.00 | 0.00 | 37 | 1008.5 |
| 20260504034516 | 20 | 279 | 0.0 | 3.2 | 0.00 | 0.00 | 0.00 | 38 | 1008.8 |
| 20260504033016 | 19 | 279 | 0.0 | 1.6 | 0.00 | 0.00 | 0.00 | 42 | 1009.2 |
| 20260504031516 | 17 | 279 | 0.0 | 1.6 | 0.00 | 0.00 | 0.00 | 47 | 1009.1 |
| 20260504030021 | 17 | 279 | 0.0 | 0.0 | 0.00 | 0.00 | 0.00 | 49 | 1008.8 |
| 20260504024515 | 17 | 279 | 0.0 | 0.0 | 0.00 | 0.00 | 0.00 | 50 | 1008.7 |
| 20260504023016 | 17 | 279 | 0.0 | 0.0 | 0.00 | 0.00 | 0.00 | 50 | 1008.9 |
| 20260504021513 | 17 | 279 | 0.0 | 0.0 | 0.00 | 0.00 | 0.00 | 49 | 1008.8 |
| 20260504020016 | 17 | 279 | 0.0 | 0.0 | 0.00 | 0.00 | 0.00 | 47 | 1008.7 |
| 20260504014513 | 18 | 279 | 0.0 | 0.0 | 0.00 | 0.00 | 0.00 | 45 | 1008.6 |
| 20260504013013 | 18 | 279 | 0.0 | 0.0 | 0.00 | 0.00 | 0.00 | 43 | 1008.5 |
| 20260504011512 | 20 | 279 | 0.0 | 0.0 | 0.00 | 0.00 | 0.00 | 41 | 1008.5 |
| 20260504010011 | 21 | 279 | 0.0 | 0.0 | 0.00 | 0.00 | 0.00 | 37 | 1008.5 |
| 20260504004512 | 22 | 279 | 0.0 | 1.6 | 0.00 | 0.00 | 0.00 | 34 | 1008.5 |
| 20260504003008 | 22 | 279 | 0.0 | 0.0 | 0.00 | 0.00 | 0.00 | 35 | 1008.6 |
| 20260504001507 | 23 | 279 | 0.0 | 3.2 | 0.00 | 0.00 | 0.00 | 31 | 1008.8 |
| 20260504000006 | 25 | 278 | 0.0 | 3.2 | 0.00 | 0.00 | 0.00 | 26 | 1008.9 |